Regional Weather Roundup
Issued by NWS

Home | Current Version | Previous Version | Text Only | Print | Product List | Glossary Off
Versions: 1 2 3 4 5 6 7 8 9 10 11 12 13 14 15 16 17 18 19 20 21 22 23 24 25 26 27 28 29 30 31 32 33 34 35 36 37 38 39 40 41 42 43 44 45 46 47 48 49 50

000
ASUS43 KMPX 271201
RWRMN
WEATHER ROUNDUP FOR MINNESOTA
NATIONAL WEATHER SERVICE TWIN CITIES/CHANHASSEN MN
700 AM CDT THU JUL 27 2017


NOTE: "FAIR" INDICATES FEW OR NO CLOUDS BELOW 12,000 FEET WITH NO
SIGNIFICANT WEATHER AND/OR OBSTRUCTIONS TO VISIBILITY. N/A MEANS
CURRENT SKY AND/OR WEATHER CONDITIONS ARE NOT AVAILABLE.

MNZ060>063-068>070-271300-
   Twin Cities Metro

CITY           SKY/WX    TMP DP  RH WIND       PRES   REMARKS
TWIN CITIES    SUNNY     68  60  75 N6        30.06R
6HR MIN TEMP:  66; 6HR MAX TEMP:  70;

ST PAUL        SUNNY     66  63  90 NW3       30.06R
CRYSTAL        CLEAR     66  58  75 N3        30.05S
BLAINE         SUNNY     66  63  88 CALM      30.07R
LAKEVILLE      CLEAR     64  64 100 CALM      30.06R
EDEN PRAIRIE   CLEAR     67  61  81 N6        30.05R
6HR MIN TEMP:  66; 6HR MAX TEMP:  70;

SOUTH ST PAUL  SUNNY     67  61  79 N3        30.05S
LAKE ELMO      FAIR      64  63  94 CALM      30.07S
$$
MNZ001>005-007-008-013>017-022>024-027-028-271300-
   Northwest Minnesota

CITY           SKY/WX    TMP DP  RH WIND       PRES   REMARKS
BEMIDJI        CLEAR     56  55  96 CALM      30.12S
HALLOCK        CLEAR     55  54  94 S3        30.11R FOG
ROSEAU         PTCLDY    61  54  77 CALM      30.11S
WARROAD        CLEAR     57  55  94 CALM      30.12S FOG
CROOKSTON      CLEAR     57  55  94 CALM      30.13R
FOSSTON        MOCLDY    55  54  94 CALM      30.13S FOG
DETROIT LAKES  CLEAR     63  59  88 CALM      30.13F
MOORHEAD       PTCLDY    55  55 100 CALM      30.13S FOG
PARK RAPIDS    CLEAR     62  59  90 N3        30.12S
MAHNOMEN       FAIR      56  56  99 CALM      30.12S
$$
MNZ006-009>011-018-025>026-271300-
   North Central Minnesota

CITY           SKY/WX    TMP DP  RH WIND       PRES   REMARKS
BAUDETTE       SUNNY     58  58 100 W5        30.10S
FLAG ISLAND    SUNNY     64  63  94 CALM      30.09S
INTL FALLS     FOG       54  53  97 CALM      30.10S VSB 1/4
6HR MIN TEMP:  48; 6HR MAX TEMP:  56;

WASKISH        SUNNY     57  55  94 CALM      30.11S
BIG FORK       SUNNY     54  52  94 CALM      30.11S
LONGVILLE      FOG       59  59 100 CALM      30.11S VSB 1/2
GRAND RAPIDS   SUNNY     60  59  96 NW3       30.12F
CRANE LAKE     SUNNY     50  50 100 CALM      30.11S
ORR            SUNNY     55  54  94 CALM      30.08S
COOK             N/A     54  54 100 CALM      30.10F
WALKER         FAIR      56  56  98 W3        30.12S
$$
MNZ012-019>021-037-271300-
   Northeast Minnesota

CITY           SKY/WX    TMP DP  RH WIND       PRES   REMARKS
DULUTH         SUNNY     62  60  93 N6        30.09S
6HR MIN TEMP:  58; 6HR MAX TEMP:  63;

ELY            SUNNY     55  54  94 CALM      30.10S
HIBBING        MOSUNNY   53  53 100 CALM      30.10R
EVELETH        SUNNY     54  51  91 CALM      30.11S
DULUTH HARBOR  SUNNY     63  61  94 CALM      30.08R
TWO HARBORS    SUNNY     63  57  82 CALM      30.06S
SILVER BAY     SUNNY     57  55  94 CALM      30.07R
GRAND MARAIS     N/A     63  56  78 NE8       30.06R
G MARAIS ARPRT SUNNY     61  54  77 N5        30.11S
$$
MNZ029>031-032-039>041-046>048-054>057-064-271300-
   West Central Minnesota

CITY           SKY/WX    TMP DP  RH WIND       PRES   REMARKS
FERGUS FALLS   CLEAR     63  61  94 CALM      30.11R
WHEATON        CLEAR     59  57  94 CALM      30.13S
MORRIS         CLEAR     61  57  88 CALM      30.10S
ALEXANDRIA     CLEAR     65  60  84 NE6       30.12S
ELBOW LAKE     FOG       65  63  93 CALM      30.12R VSB 3/4
WADENA         CLEAR     57  57 100 CALM      30.11S
GLENWOOD       CLEAR     63  61  94 N5        30.12R
APPLETON       CLEAR     63  59  88 N3        30.09F
BENSON         CLEAR     61  57  88 CALM      30.12R
ORTONVILLE     CLEAR     63  59  88 MISG      30.11R
MADISON        CLEAR     63  63 100 CALM      30.10S
WILLMAR        FAIR      64  63  94 N3        30.11R
$$
MNZ033>034-036-042>043-049>051-058-059-271300-
   Central Minnesota

CITY           SKY/WX    TMP DP  RH WIND       PRES   REMARKS
ST CLOUD       CLEAR     63  61  93 CALM      30.08S
6HR MIN TEMP:  60; 6HR MAX TEMP:  65;

SAUK CENTRE    FAIR      62  59  91 CALM      30.11S
PAYNESVILLE    CLEAR     59  59  98 CALM      30.10S
AITKIN         SUNNY     55  54  94 CALM      30.09S
PINE RIVER     CLEAR     55  55 100 CALM      30.14S
BRAINERD       CLEAR     59  58  96 CALM      30.10S
STAPLES        CLEAR     57  57 100 N3        30.11S
LONG PRAIRIE   FAIR      61  57  88 CALM      30.11S
LITTLE FALLS   CLEAR     55  54  94 CALM      30.10S
LITCHFIELD     CLEAR     66  63  88 CALM      30.09S
BUFFALO        CLEAR     65  59  82 N3        30.08S
MAPLE LAKE     CLEAR     65  63  93 N3        30.09S
HUTCHINSON     CLEAR     66  63  89 N3        30.09S
$$
MNZ037-044-045-052-053-271300-
   East Central Minnesota

CITY           SKY/WX    TMP DP  RH WIND       PRES   REMARKS
PRINCETON      CLEAR     63  61  94 CALM      30.08S
MORA           SUNNY     59  55  88 CALM      30.10S
CAMBRIDGE      SUNNY     64  57  77 CALM      30.06S
RUSH CITY      MOSUNNY   61  58  92 CALM      30.08S
MOOSE LAKE     SUNNY     59  55  88 CALM      30.07S
HINCKLEY       FAIR      61  59  94 CALM      30.08S
CLOQUET        SUNNY     61  55  82 N3        30.09S
MCGREGOR       SUNNY     57  55  94 CALM      30.10S
$$
MNZ071>073-080-081-089-090-097-098-271300-
   Southwest Minnesota

CITY           SKY/WX    TMP DP  RH WIND       PRES   REMARKS
MONTEVIDEO     CLEAR     63  59  88 CALM      30.11R
CANBY          CLEAR     62  61  94 CALM      30.12S
MARSHALL       CLEAR     61  60  97 NW6       30.11R
REDWOOD FALLS  CLEAR     64  60  87 NW3       30.08R
OLIVIA         CLEAR     61  59  94 CALM      30.08S
PIPESTONE      CLEAR     64  61  88 NE6       30.11S
WINDOM         CLEAR     63  61  94 N6        30.10R
WORTHINGTON    CLEAR     60  58  92 NW5       30.11R
JACKSON        CLEAR     61  61 100 CALM      30.10R
TRACY          CLEAR     63  62  96 NW3       30.11S
SLAYTON        HVY RAIN  60  52  74 NW3       30.12R
$$
MNZ065>067-074>077-082>085-091>093-271300-
   South Central Minnesota

CITY           SKY/WX    TMP DP  RH WIND       PRES   REMARKS
MANKATO        CLEAR     65  61  87 N5        30.07R
NEW ULM        CLEAR     66  61  82 N6        30.07S
ST JAMES       CLEAR     61  61 100 CALM      30.09R
FAIRMONT       CLEAR     62  60  93 N3        30.08R
GLENCOE        CLEAR     64  64  97 NW5       30.08R
FARIBAULT      CLEAR     63  63 100 CALM      30.06S
OWATONNA       CLEAR     63  61  94 CALM      30.06S
WASECA         CLEAR     63  61  94 CALM      30.08R
ALBERT LEA     CLEAR     64  63  94 CALM      30.06R
$$
MNZ078>079-086>088-094>096-271300-
   Southeast Minnesota

CITY           SKY/WX    TMP DP  RH WIND       PRES   REMARKS
ROCHESTER      SUNNY     64  62  93 N6        30.05S
6HR MIN TEMP:  61; 6HR MAX TEMP:  64;

RED WING       SUNNY     63  61  94 CALM      30.04R
STANTON        SUNNY     61  59  95 CALM      30.04S
DODGE CENTER   SUNNY     63  61  94 N6        30.06S
WINONA         FOG       63  61  94 NW3       30.03S VSB 1/4
AUSTIN         CLEAR     63  59  88 CALM      30.05R
PRESTON        SUNNY     64  60  88 N5        30.05S
$$
ABBREVIATIONS USED IN REMARKS
   TC - TEMPERATURES IN CELSIUS
  WCI - WIND CHILL INDEX
   HX - HEAT INDEX
  VSB - VISIBILITY
$$



USA.gov is the U.S. government's official web portal to all federal, state and local government web resources and services.